Home > Weather > Shenzhen > Past weeks

Flag for China Past Weather in Shenzhen, Guangdong, China — Yesterday and Last 2 Weeks

Now
84 °F

Passing clouds.


Feels Like: 96 °F
Forecast: 81 / 88 °F
Wind: 3 mph from Southeast

Location: Shenzhen Airport

Current Time: Jun 29, 2016 at 4:45:04 AM

Latest Report: Jun 29, 2016 at 4:00 AM


Visibility: N/A

Pressure: 29.80 "Hg

Humidity: 84%

Dew Point: 79 °F

Location of ShenzhenLocation

Past Weather in Shenzhen — Graph

°F

Shenzhen Temperature Yesterday

Maximum temperature yesterday: 86 °F (at 12:00 AM)
Minimum temperature yesterday: 79 °F (at 8:00 AM)
Average temperature yesterday: 84 °F

High & Low Weather Summary for the Past Weeks

 TemperatureHumidityPressure
High91 °F (Jun 24, 1:00 PM)100% (Jun 28, 8:00 AM)29.86 "Hg (Jun 28, 8:00 AM)
Low79 °F (Jun 17, 3:00 AM)63% (Jun 24, 2:00 PM)29.59 "Hg (Jun 14, 4:00 PM)
Average86 °F84%29.76 "Hg
* Reported Jun 14 3:00 AM — Jun 29 3:00 AM, Shenzhen, Weather by CustomWeather, © 2016

Note: Actual official high and low records may vary slightly from our data, if they occured in-between our weather recording intervals... More about our weather records

Advertising

Shenzhen Weather History for the Previous 24 Hours

Scroll right to see more
 ConditionsComfort  
Time TempWeatherWind HumidityBarometerVisibility
3:00 AM
Wed, Jun 29
84 °FPassing clouds.3 mph84%29.80 "HgN/A
2:00 AM84 °FPassing clouds.3 mph84%29.80 "HgN/A
1:00 AM84 °FPassing clouds.6 mph84%29.83 "HgN/A
12:00 AM84 °FPassing clouds.6 mph84%29.83 "HgN/A
11:00 PM
Tue, Jun 28
84 °FPassing clouds.6 mph84%29.83 "HgN/A
10:00 PM84 °FPassing clouds.6 mph84%29.83 "HgN/A
9:00 PM84 °FClear.1 mph89%29.80 "Hg10 mi
8:00 PM84 °FClear.No wind84%29.80 "Hg10 mi
7:00 PM84 °FSunny.3 mph84%29.77 "Hg10 mi
6:00 PM86 °FSunny.6 mph79%29.77 "Hg10 mi
5:00 PM86 °FSunny.3 mph79%29.74 "Hg10 mi
4:00 PM86 °FSunny.1 mph79%29.74 "Hg10 mi
3:00 PM84 °FSunny.1 mph84%29.77 "Hg10 mi
2:00 PM82 °FScattered clouds.6 mph89%29.77 "HgN/A
1:00 PM81 °FPartly sunny.10 mph94%29.80 "HgN/A
12:00 PM81 °FBroken clouds.10 mph94%29.77 "HgN/A
11:00 AM81 °FRain showers. Partly sunny.20 mph94%29.74 "Hg5 mi
10:00 AM81 °FStrong thunderstorms. Partly sunny.8 mph94%29.74 "Hg2 mi
9:00 AM79 °FSprinkles. Broken clouds.8 mph100%29.71 "HgN/A
8:00 AM79 °FRain showers. Fog.15 mph100%29.68 "Hg1 mi
7:00 AM82 °FSprinkles. Fog.10 mph89%29.68 "Hg2 mi
6:00 AM84 °FPartly sunny.8 mph79%29.68 "HgN/A
5:00 AM86 °FPassing clouds.6 mph70%29.68 "HgN/A
4:00 AM86 °FPassing clouds.6 mph75%29.68 "HgN/A
Weather by CustomWeather, © 2016

See weather overviewHow to use our weather pages